Skip Page Navigation
NASA JPL Caltech
NASA Logo - Jet Propulsion Laboratory + View the NASA Portal
+ Near-Earth Object (NEO) Program
Search JPL
JPL Home Earth Solar System Stars & Galaxies Technology
JPL Solar System Dynamics
BODIES ORBITS EPHEMERIDES TOOLS PHYSICAL DATA DISCOVERY FAQ SITE MAP
JPL Small-Body Database Browser
Search: [ help ]  
78661 Castelfranco (2002 TW85)
Classification: Main-belt Asteroid          SPK-ID: 2078661
Ephemeris | Orbit Diagram | Orbital Elements | Physical Parameters | Discovery Circumstances | Close-Approach Data ]

[ show orbit diagram ]
Orbital Elements at Epoch 2457000.5 (2014-Dec-09.0) TDB
Reference: JPL 14 (heliocentric ecliptic J2000)
 Element Value Uncertainty (1-sigma)   Units 
e .03363707659777917 7.0439e-08  
a 2.33545056988809 2.0168e-08 AU
q 2.256892840178438 1.6723e-07 AU
i 2.637239303116176 6.8222e-06 deg
node 274.1228587690115 0.00014567 deg
peri 284.1213401654062 0.00017909 deg
M 322.3266581085132 0.00010565 deg
tp 2457136.922527906185
(2015-Apr-24.42252791)
0.00038265 JED
period 1303.630301439348
3.57
1.6886e-05
4.623e-08
d
yr
n .2761519117824441 3.5771e-09 deg/d
Q 2.414008299597743 2.0846e-08 AU
  Orbit Determination Parameters
   # obs. used (total)      511  
   data-arc span      6568 days (17.98 yr)  
   first obs. used      1997-04-02  
   last obs. used      2015-03-27  
   planetary ephem.      DE431  
   SB-pert. ephem.      SB431-BIG16  
   condition code      0  
   fit RMS      .56509  
   data source      ORB  
   producer      Otto Matic  
   solution date      2015-Apr-07 19:13:27  

Additional Information
 Earth MOID = 1.25647 AU 
 T_jup = 3.566 
[ show covariance matrix ]

Ephemeris | Orbit Diagram | Orbital Elements | Physical Parameters | Discovery Circumstances | Close-Approach Data ]

Physical Parameter Table
Parameter Symbol Value Units Sigma Reference Notes
absolute magnitude H 15.8 mag n/a MPO266289  

78661 Castelfranco           Discovered 2002 Oct. 2 by CINEOS at Campo Imperatore.
Castelfranco Veneto, a town in the Venetian plain, is famous as the home of Giorgione, a painter of the Venetian School. The twelfth-century castle is still well preserved.
NOTE: some special characters may not display properly (any characters within {} are an attempt to place the proper accent above a character)
Reference: 20080618/MPCPages.arcLast Updated: 2008-06-20

[ show close-approach data ]
Ephemeris | Orbit Diagram | Orbital Elements | Physical Parameters | Discovery Circumstances | Close-Approach Data ]
ABOUT SSD CREDITS/AWARDS PRIVACY/COPYRIGHT GLOSSARY LINKS
FirstGov 2015-Apr-28 18:19 UT
(server date/time)  
NASA Home Page
Site Manager:   Ryan S. Park
Webmaster  Alan B. Chamberlin